Погода в Озинках

Россия / Саратовская область     51°11′56″N   49°43′45″E
темп.,
°C
ветер,
м/с
пор.,
м/с
влажн.,
%
обл.,
%
осадки,
мм/ч
давл.,
гПа
погр.,
м
11 мая, вт
вт1101:00+13ю6109088 0.0 1016452
04:00+10ююз5790100 0.2 1019466
07:00+9ююз5787100 0.7 1022489
10:00+9вюв228299 4.3 1024358
13:00+12всв33696 0.6 1025593
16:00+14всв325774 0.8 1025598
19:00+11ссв3382100 0.1 1025137
22:00+12всв3794100 0.6 1025206
12 мая, ср
ср1201:00+12всв51195100 3.3 1024349
04:00+13всв61292100 3.7 1023388
07:00+15вюв101975100 0.0 1022571
10:00+14вюв81585100 0.2 1024463
13:00+17вюв81374100 0.3 1024639
16:00+19вюв7116565 0.4 1024904
19:00+19вюв61261100 0.1 1024511
22:00+18в7145666 0.1 1023353
13 мая, чт
чт1301:00+17в81647100 0.0 1022368
04:00+17вюв81555100 0.1 1022333
07:00+16вюв4856100 0.1 1023182
10:00+22юв8133767 0.1 1023689
13:00+24юв101330100 0.0 10221146
16:00+25юв1012305 0.0 10221425
19:00+23юв7154090 0.0 1021524
22:00+20юв81641100 0.0 1021358
14 мая, пт
пт1401:00+19юв7154352 0.0 1021268
04:00+16ююв512504 0.0 1022178
07:00+18юв511510 0.0 1023246
10:00+24ююв811310 0.1 1023625
13:00+27ююв89240 0.0 10231169
16:00+27ююв89235 0.0 10231420
19:00+24юв59365 0.0 1022226
22:00+19юв510455 0.0 1022145
15 мая, сб
сб1501:00+18юв511455 0.0 1022157
04:00+17ююв48475 0.0 1022106
07:00+19юв59475 0.0 1022187
10:00+25ююв68315 0.0 1022467
13:00+29ююв67245 0.0 10212086
16:00+29ююв56225 0.0 10202555
19:00+27юв35360 0.0 101986
22:00+22юв48430 0.0 1019106